Regional Weather Roundup
Issued by NWS

Home | Current Version | Previous Version | Text Only | Print | Product List | Glossary On
Versions: 1 2 3 4 5 6 7 8 9 10 11 12 13 14 15 16 17 18 19 20 21 22 23 24 25 26 27
000
ASUS45 KBOU 281207
RWRCO

WEATHER ROUNDUP FOR COLORADO
NATIONAL WEATHER SERVICE DENVER/BOULDER CO
600 AM MDT WED JUN 28 2017

NOTE: "FAIR" INDICATES FEW OR NO CLOUDS BELOW 12000 FEET WITH NO
SIGNIFICANT WEATHER AND/OR OBSTRUCTIONS TO VISIBILITY.

COZ001>005-013-030-031-281300-
...NORTHWEST COLORADO...

CITY           SKY/WX    TMP DP  RH WIND       PRES   REMARKS
CRAIG          FAIR      42  37  82 CALM      30.03R
HAYDEN         FAIR      48  34  57 E7        30.04S
MEEKER         FAIR      49  35  58 CALM      30.03R
RABBIT EARS PA PTSUNNY   46  32  57 NW8       30.28S
STEAMBOAT SPGS FAIR      43  37  80 CALM      30.07R
WALDEN         FAIR      37  32  81 SE9       30.15S
$$

COZ006>008-011-281300-
...WEST CENTRAL VALLEYS...

CITY           SKY/WX    TMP DP  RH WIND       PRES   REMARKS
GRAND JUNCTION FAIR      66  31  27 SE9       29.88R
MONTROSE       FAIR      58  22  24 SE7       29.99R
EAGLE          FAIR      50  32  50 E6        30.08R
RIFLE          FAIR      59  28  30 CALM      29.96R
DELTA          FAIR      60  30  32 E3        29.94S
NUCLA          FAIR      57  18  21 E10       30.02R
$$

COZ017>023-064>068-281300-
...SOUTHWEST COLORADO...

CITY           SKY/WX    TMP DP  RH WIND       PRES   REMARKS
DURANGO        FAIR      43  22  43 N5        30.08R
CORTEZ         FAIR      44  28  53 MISG      30.02R
PAGOSA SPRINGS FAIR      42  18  38 CALM      30.17R
TELLURIDE      FAIR      53  14  21 SE6       30.24R
WOLF CREEK PAS FAIR      45  10  24 SW8       30.48R
$$

COZ009-010-012-014-032>034-037-058>063-281300-
...CENTRAL COLORADO...

CITY           SKY/WX    TMP DP  RH WIND       PRES   REMARKS
ASPEN          FAIR      50  32  50 SW10      30.10F
BUENA VISTA    FAIR      48  25  40 W5        30.15R
COPPER MTN     FAIR      52  19  28 SW8       30.40S
BERTHOUD PASS  CLOUDY    41  28  60 W14       30.41S
COTTONWOOD PAS FAIR      59  14  17 CALM      30.27S
GUNNISON       FAIR      39  30  70 N3        30.17R
KREMMLING      FAIR      50  37  62 CALM      30.12S
LEADVILLE      FAIR      35  25  66 CALM      30.26S
MONARCH PASS   FAIR      46   9  21 SW10      30.52R
SALIDA         FAIR      51  22  31 W6        30.21R
SUNLIGHT       FAIR      50  21  32 SE5       30.33S HAZE
WILKERSON PASS FAIR      48  23  37 W3        30.39S
$$

COZ069>075-281300-
...SAN LUIS VALLEY/SANGRE DE CRISTO MOUNTAINS...

CITY           SKY/WX    TMP DP  RH WIND       PRES   REMARKS
ALAMOSA        FAIR      39  33  79 E7        30.12R
DEL NORTE      FAIR      51  17  25 NW9       30.15R
LA VETA PASS   FAIR      48  32  53 MISG      30.43R
SAGUACHE       FAIR      43  18  36 NE3       30.16R
$$

COZ035-036-038>040-281300-
...NORTHERN COLORADO FRONT RANGE...

CITY           SKY/WX    TMP DP  RH WIND       PRES   REMARKS
DENVER INTL AP FAIR      59  40  49 S9        29.98R
DMNS CITY PARK   N/A     60  42  52 E7        29.99R
AURORA         MOCLDY    55  42  60 S8        30.01R
FRONT RANGE AP FAIR      55  43  62 S7        30.00R
ERIE MUNI ARPT FAIR      62  42  47 CALM      29.97R
BOULDER MUN AP FAIR      63  41  45 S3        29.97R
CENTENNIAL     FAIR      55  41  59 S6        30.02R
BROOMFIELD     FAIR      63  37  39 S5        30.01R
FORT COLLINS   FAIR      60  44  55 S3        29.97R
LONGMONT       FAIR      56  47  69 CALM      29.98R
$$

COZ041-046-047-076>085-087-088-281300-
...PIKES PEAK/PALMER DIVIDE AND SOUTHERN FOOTHILLS...

CITY           SKY/WX    TMP DP  RH WIND       PRES   REMARKS
COLO. SPRINGS  FAIR      59  40  49 NW12      30.05R
A. F. ACADEMY  CLEAR     52  38  60 N9        30.07R
SCHRIEVER AFB  FAIR      58  39  49 N16       30.04R
CHEYENNE MTN   FAIR      61  34  35 N13       30.03R
ELLICOTT       FAIR     N/A N/A N/A N7        30.02R
FALCON           N/A     57  37  46 NW8       30.09R
FORT CARSON    FAIR      60  37  43 N12       30.02R
LIMON          FAIR      52  43  71 VRB3      29.98R
MONUMENT HILL  FAIR      45  37  76 W5        30.10F
CANON CITY     CLEAR     63  37  39 CALM      30.00R
WALSENBURG     FAIR      52  43  71 MISG      30.06R
TRINIDAD       FAIR      57  40  52 W12       30.03R
$$

COZ042>045-048>051-090-091-281300-
...NORTHEAST COLORADO...

CITY           SKY/WX    TMP DP  RH WIND       PRES   REMARKS
GREELEY ARPT   FAIR      56  46  69 CALM      29.96R
AKRON          FAIR      55  45  68 NW6       29.93R
BURLINGTON     FAIR      56  52  86 NW7       29.87R
WRAY           FAIR      59  50  72 NW15      29.85R
YUMA           FAIR      54  43  66 NW9       29.89R
STERLING       FAIR      54  46  76 W6        29.89R
HOLYOKE        NOT AVBL
FORT MORGAN    FAIR      54  42  63 N10       29.93S
$$

COZ086-089-092>099-281300-
...SOUTHEAST COLORADO...

CITY           SKY/WX    TMP DP  RH WIND       PRES   REMARKS
PUEBLO         FAIR      67  41  38 NW9       29.96R
LA JUNTA       FAIR      61  46  57 W10       29.88R
LAMAR          FAIR      62  53  72 NW5       29.80R
SPRINGFIELD      N/A     65  46  50 W14       29.84R
$$




USA.gov is the U.S. government's official web portal to all federal, state and local government web resources and services.